Weather History for Vero Beach, FL

Change the Weather History Date:

Saturday, November 17, 2012

  Actual Average Record
Temperature  
Mean Temperature 71 °F 70 °F  
Max Temperature 78 °F 79 °F 86 °F (1948)
Min Temperature 64 °F 61 °F 38 °F (1970)
Degree Days  
Heating Degree Days 0 1  
Month to date heating degree days 15 9  
Since 1 July heating degree days 32 12  
Cooling Degree Days 6 6  
Month to date cooling degree days 58 118  
Year to date cooling degree days 3403 3246  
Growing Degree Days 20 (Base 50)    
Moisture  
Dew Point 63 °F    
Average Humidity 79    
Maximum Humidity 93    
Minimum Humidity 64    
Precipitation  
Precipitation T in 0.11 in 2.40 in (1982)
Month to date precipitation 0.85 2.02  
Year to date precipitation 46.39 48.42  
Sea Level Pressure  
Sea Level Pressure 30.10 in    
Wind  
Wind Speed 9 mph (NNE)    
Max Wind Speed 21 mph    
Max Gust Speed 28 mph    
Visibility 10 miles    
Events Rain    
T = Trace of Precipitation, MM = Missing Value Source: NWS Daily Summary

Daily Weather History Graph

Daily Weather History Graph

Search for Another Location

Airport:

Trip Planner

Search our weather history database for the weather conditions in past years. The results will help you decide how hot, cold, wet, or windy it might be!

Date:

Astronomy

Nov. 17, 2012 Rise Set
Actual Time 6:44 AM EST 5:28 PM EST
Civil Twilight 6:19 AM EST 5:53 PM EST
Nautical Twilight 5:51 AM EST 6:21 PM EST
Astronomical Twilight 5:23 AM EST 6:49 PM EST
Moon 10:27 AM EST 9:35 PM EST
Length of Visible Light 11h 33m
Length of Day
10h 44m
Waxing Crescent, 20% of the Moon is Illuminated
Nov 17
Waxing Crescent
Nov 20
First Quarter
Nov 28
Full
Dec 6
Last Quarter
Dec 13
New

Hourly Weather History & Observations

Time (EST) Temp. Dew Point Humidity Pressure Visibility Wind Dir Wind Speed Gust Speed Precip Events Conditions
12:07 AM 64.4 °F 62.6 °F 94% 30.10 in 9.0 mi NNW 4.6 mph - N/A   Overcast
12:20 AM 64.4 °F 62.6 °F 94% 30.10 in 10.0 mi NNW 4.6 mph - N/A   Overcast
12:53 AM 66.0 °F 64.0 °F 93% 30.09 in 10.0 mi ENE 3.5 mph - N/A   Mostly Cloudy
1:53 AM 66.9 °F 64.0 °F 90% 30.08 in 10.0 mi ENE 3.5 mph - N/A   Overcast
2:53 AM 66.9 °F 64.9 °F 93% 30.07 in 10.0 mi Calm Calm - N/A   Overcast
3:17 AM 66.2 °F 64.4 °F 94% 30.09 in 10.0 mi North 3.5 mph - N/A   Overcast
3:51 AM 66.2 °F 64.4 °F 94% 30.09 in 10.0 mi NNE 17.3 mph 24.2 mph N/A   Overcast
3:53 AM 66.9 °F 63.0 °F 87% 30.09 in 10.0 mi NNE 20.7 mph 27.6 mph N/A   Overcast
4:12 AM 64.4 °F 60.8 °F 88% 30.10 in 10.0 mi NNE 9.2 mph 23.0 mph 0.00 in   Overcast
4:53 AM 64.9 °F 62.1 °F 90% 30.09 in 10.0 mi North 8.1 mph - 0.00 in   Scattered Clouds
5:53 AM 66.9 °F 62.1 °F 84% 30.10 in 10.0 mi NE 10.4 mph - N/A   Mostly Cloudy
6:53 AM 68.0 °F 61.0 °F 78% 30.12 in 10.0 mi NNE 4.6 mph - N/A   Overcast
7:53 AM 69.1 °F 63.0 °F 81% 30.12 in 10.0 mi ENE 8.1 mph - N/A   Overcast
8:53 AM 72.0 °F 64.0 °F 76% 30.13 in 10.0 mi North 4.6 mph - N/A   Partly Cloudy
9:53 AM 75.0 °F 64.9 °F 71% 30.13 in 10.0 mi NNE 11.5 mph - N/A   Clear
10:53 AM 75.0 °F 64.9 °F 71% 30.13 in 10.0 mi NNE 10.4 mph - N/A   Partly Cloudy
11:53 AM 77.0 °F 64.9 °F 66% 30.11 in 10.0 mi NNE 11.5 mph - N/A   Clear
12:53 PM 77.0 °F 64.0 °F 64% 30.09 in 10.0 mi NNE 13.8 mph - N/A   Scattered Clouds
1:53 PM 75.0 °F 64.9 °F 71% 30.08 in 10.0 mi North 15.0 mph - N/A   Mostly Cloudy
2:16 PM 73.4 °F 64.4 °F 73% 30.09 in 10.0 mi NNE 16.1 mph 21.9 mph 0.00 in   Overcast
2:53 PM 69.1 °F 64.0 °F 84% 30.09 in 10.0 mi NNE 12.7 mph - 0.00 in Rain Light Rain
3:53 PM 70.0 °F 64.0 °F 81% 30.09 in 10.0 mi NNE 10.4 mph - 0.00 in   Scattered Clouds
4:53 PM 70.0 °F 61.0 °F 73% 30.09 in 10.0 mi North 5.8 mph - N/A   Partly Cloudy
5:53 PM 66.9 °F 62.1 °F 84% 30.09 in 10.0 mi NNW 5.8 mph - N/A   Clear
6:53 PM 71.1 °F 63.0 °F 75% 30.10 in 10.0 mi NNE 8.1 mph - N/A   Clear
7:53 PM 71.1 °F 62.1 °F 73% 30.11 in 10.0 mi North 5.8 mph - N/A   Partly Cloudy
8:53 PM 69.1 °F 64.9 °F 87% 30.12 in 10.0 mi North 8.1 mph - 0.00 in   Mostly Cloudy
9:53 PM 68.0 °F 63.0 °F 84% 30.12 in 10.0 mi North 12.7 mph - N/A   Partly Cloudy
10:53 PM 71.1 °F 63.0 °F 75% 30.11 in 10.0 mi NNE 12.7 mph 23.0 mph N/A   Clear
11:53 PM 71.1 °F 63.0 °F 75% 30.10 in 10.0 mi NNE 9.2 mph - N/A   Clear